This is the latest recevied weather packets stored in our database for station/object N8TWM-13. If no packets are shown the sender has not sent any weather packets the latest 1 day(s).
| Time | Temp. | Humidity | Pressure | Rain* | Wind** | Luminosity | Snow |
|---|---|---|---|---|---|---|---|
| 1778049005 | 6.67° C | 97% | 1008.1 hPa | 4.83 mm | - | 0 W/m² | - |
| 1778047188 | 7.78° C | 97% | 1007.6 hPa | 3.05 mm | - | 0 W/m² | - |
| 1778046886 | 7.78° C | 97% | 1008.1 hPa | 1.27 mm | - | 0 W/m² | - |
| 1778046582 | 7.78° C | 97% | 1007.9 hPa | 0 mm | - | 0 W/m² | - |
| 1778046279 | 7.78° C | 97% | 1008.1 hPa | 1.78 mm | - | 0 W/m² | - |
| 1778045673 | 7.78° C | 97% | 1008.1 hPa | 1.27 mm | - | 0 W/m² | - |
| 1778045372 | 7.78° C | 97% | 1008 hPa | 1.78 mm | - | 0 W/m² | - |
| 1778044767 | 8.33° C | 97% | 1008 hPa | 3.05 mm | - | 0 W/m² | - |
| 1778044160 | 8.33° C | 97% | 1008.3 hPa | 3.05 mm | - | 0 W/m² | - |
| 1778043858 | 8.33° C | 97% | 1008.3 hPa | 1.78 mm | - | 0 W/m² | - |
| 1778043555 | 8.33° C | 97% | 1008.4 hPa | 1.27 mm | - | 0 W/m² | - |
| 1778043252 | 8.33° C | 97% | 1008.4 hPa | 3.05 mm | - | 0 W/m² | - |
| 1778041738 | 8.89° C | 97% | 1008.3 hPa | 0 mm | - | 0 W/m² | - |
| 1778041437 | 8.89° C | 97% | 1008 hPa | 1.27 mm | - | 0 W/m² | - |
| 1778040832 | 8.33° C | 97% | 1008.1 hPa | 1.78 mm | - | 0 W/m² | - |
| 1778040227 | 8.89° C | 97% | 1008.3 hPa | 3.05 mm | - | 0 W/m² | - |
| 1778039923 | 8.89° C | 97% | 1008.6 hPa | 1.27 mm | - | 0 W/m² | - |
| 1778038105 | 8.89° C | 97% | 1008.8 hPa | 4.83 mm | - | 0 W/m² | - |
| 1778037802 | 8.89° C | 97% | 1009 hPa | 4.83 mm | - | 0 W/m² | - |
| 1778037499 | 8.89° C | 97% | 1009.1 hPa | 3.05 mm | - | 0 W/m² | - |
| 1778036894 | 8.89° C | 97% | 1009.2 hPa | 3.05 mm | - | 0 W/m² | - |
| 1778036592 | 8.89° C | 97% | 1009.1 hPa | 1.78 mm | - | 0 W/m² | - |
| 1778036288 | 8.89° C | 97% | 1009.4 hPa | 1.27 mm | - | 0 W/m² | - |
| 1778035378 | 8.89° C | 97% | 1009.5 hPa | 3.05 mm | - | 0 W/m² | - |
| 1778035074 | 8.89° C | 96% | 1009.4 hPa | 3.05 mm | - | 0 W/m² | - |
* Rain latest hour (hover to see other rain measurements)
** Current wind speed in m/s (hover to see current wind gust speed)